• In Uzbekistan
  • List of Countries
  • For 7 days
  • Water Temperature
  • Satellite Maps
  • Weather Map
  • Weather Widgets
  • user-avatar
    Login

    Hourly Weather Santiago del Estero

    Today, 18 January, Wednesday

    Time Temperature Precipitation Wind Pressure Humidity
    00:00 +28°C° 0 mm 3 mps 739 mmHg 38%
    01:00 +27°C° 0 mm 2 mps 739 mmHg 41%
    02:00 +26°C° 0 mm 2 mps 739 mmHg 46%
    03:00 +25°C° 0 mm 2 mps 739 mmHg 48%
    04:00 +25°C° 0 mm 2 mps 739 mmHg 51%
    05:00 +24°C° 0 mm 2 mps 740 mmHg 53%
    06:00 +26°C° 0 mm 2 mps 740 mmHg 49%
    07:00 +28°C° 0 mm 3 mps 741 mmHg 46%
    08:00 +31°C° 0 mm 3 mps 741 mmHg 44%
    09:00 +34°C° 0 mm 3 mps 741 mmHg 37%
    10:00 +36°C° 0 mm 3 mps 741 mmHg 31%
    11:00 +38°C° 0 mm 3 mps 741 mmHg 25%
    12:00 +40°C° 0 mm 4 mps 741 mmHg 21%
    13:00 +41°C° 0 mm 4 mps 740 mmHg 18%
    14:00 +43°C° 0 mm 4 mps 740 mmHg 15%
    15:00 +43°C° 0 mm 4 mps 739 mmHg 14%
    16:00 +43°C° 0 mm 4 mps 739 mmHg 14%
    17:00 +43°C° 0 mm 4 mps 738 mmHg 14%
    18:00 +40°C° 0 mm 4 mps 739 mmHg 18%
    19:00 +36°C° 0 mm 4 mps 739 mmHg 21%
    20:00 +33°C° 0 mm 3 mps 739 mmHg 25%
    21:00 +31°C° 0 mm 3 mps 740 mmHg 28%
    22:00 +30°C° 0 mm 3 mps 740 mmHg 30%
    23:00 +29°C° 0 mm 3 mps 741 mmHg 32%

    Tomorrow, 19 January, Thursday

    Time Temperature Precipitation Wind Pressure Humidity
    00:00 +29°C° 0 mm 3 mps 741 mmHg 35%
    01:00 +28°C° 0 mm 3 mps 741 mmHg 37%
    02:00 +27°C° 0 mm 2 mps 740 mmHg 39%
    03:00 +27°C° 0 mm 2 mps 741 mmHg 41%
    04:00 +27°C° 0 mm 2 mps 741 mmHg 43%
    05:00 +26°C° 0 mm 2 mps 741 mmHg 44%
    06:00 +28°C° 0 mm 3 mps 741 mmHg 41%
    07:00 +30°C° 0 mm 4 mps 742 mmHg 37%
    08:00 +33°C° 0 mm 5 mps 742 mmHg 34%
    09:00 +36°C° 0 mm 6 mps 742 mmHg 31%
    10:00 +39°C° 0 mm 6 mps 742 mmHg 27%
    11:00 +41°C° 0 mm 7 mps 742 mmHg 24%
    12:00 +42°C° 0 mm 6 mps 741 mmHg 21%
    13:00 +44°C° 0 mm 6 mps 741 mmHg 19%
    14:00 +46°C° 0 mm 6 mps 740 mmHg 16%
    15:00 +46°C° 0 mm 6 mps 740 mmHg 16%
    16:00 +45°C° 0 mm 6 mps 739 mmHg 16%
    17:00 +45°C° 0 mm 6 mps 738 mmHg 15%
    18:00 +42°C° 0 mm 5 mps 739 mmHg 19%
    19:00 +38°C° 0 mm 4 mps 739 mmHg 22%
    20:00 +35°C° 0 mm 4 mps 739 mmHg 25%
    21:00 +34°C° 0 mm 4 mps 740 mmHg 26%
    22:00 +33°C° 0 mm 4 mps 741 mmHg 28%
    23:00 +32°C° 0 mm 4 mps 741 mmHg 29%

    Day after tomorrow, 20 January, Friday

    Time Temperature Precipitation Wind Pressure Humidity
    00:00 +32°C° 0 mm 4 mps 741 mmHg 32%
    01:00 +30°C° 0 mm 4 mps 741 mmHg 34%
    02:00 +29°C° 0 mm 4 mps 741 mmHg 37%
    03:00 +29°C° 0 mm 3 mps 741 mmHg 40%
    04:00 +28°C° 0 mm 3 mps 742 mmHg 42%
    05:00 +27°C° 0 mm 2 mps 742 mmHg 45%
    06:00 +29°C° 0 mm 3 mps 743 mmHg 41%
    07:00 +31°C° 0 mm 3 mps 743 mmHg 38%
    08:00 +34°C° 0 mm 4 mps 744 mmHg 34%
    09:00 +36°C° 0 mm 4 mps 744 mmHg 30%
    10:00 +38°C° 0 mm 4 mps 744 mmHg 26%
    11:00 +41°C° 0 mm 4 mps 744 mmHg 22%
    12:00 +42°C° 0 mm 4 mps 743 mmHg 20%
    13:00 +43°C° 0 mm 3 mps 742 mmHg 18%
    14:00 +44°C° 0 mm 3 mps 742 mmHg 16%
    15:00 +44°C° 0 mm 3 mps 741 mmHg 16%
    16:00 +44°C° 0 mm 3 mps 740 mmHg 15%
    17:00 +44°C° 0 mm 3 mps 740 mmHg 14%
    18:00 +42°C° 0 mm 3 mps 740 mmHg 17%
    19:00 +38°C° 0 mm 3 mps 740 mmHg 19%
    20:00 +35°C° 0 mm 3 mps 740 mmHg 22%
    21:00 +34°C° 0 mm 3 mps 741 mmHg 22%
    22:00 +33°C° 0 mm 3 mps 741 mmHg 23%
    23:00 +31°C° 0 mm 3 mps 742 mmHg 24%

    21 January, Saturday

    Time Temperature Precipitation Wind Pressure Humidity
    00:00 +30°C° 0 mm 3 mps 741 mmHg 28%
    01:00 +29°C° 0 mm 2 mps 741 mmHg 31%
    02:00 +28°C° 0 mm 2 mps 741 mmHg 35%
    03:00 +27°C° 0 mm 2 mps 741 mmHg 38%
    04:00 +27°C° 0 mm 2 mps 741 mmHg 41%
    05:00 +26°C° 0 mm 1 mps 741 mmHg 45%
    06:00 +28°C° 0 mm 2 mps 742 mmHg 41%
    07:00 +30°C° 0 mm 2 mps 742 mmHg 38%
    08:00 +34°C° 0 mm 3 mps 743 mmHg 35%
    09:00 +36°C° 0 mm 3 mps 743 mmHg 32%
    10:00 +38°C° 0 mm 3 mps 743 mmHg 29%
    11:00 +40°C° 0 mm 3 mps 742 mmHg 25%
    12:00 +43°C° 0 mm 3 mps 742 mmHg 22%
    13:00 +44°C° 0 mm 3 mps 741 mmHg 19%
    14:00 +45°C° 0 mm 3 mps 740 mmHg 16%
    15:00 +45°C° 0 mm 3 mps 739 mmHg 15%
    16:00 +45°C° 0 mm 4 mps 739 mmHg 15%
    17:00 +45°C° 0 mm 4 mps 738 mmHg 15%
    18:00 +42°C° 0 mm 4 mps 738 mmHg 18%
    19:00 +38°C° 0 mm 3 mps 738 mmHg 22%
    20:00 +35°C° 0 mm 2 mps 738 mmHg 26%
    21:00 +35°C° 0 mm 3 mps 739 mmHg 28%
    22:00 +34°C° 0 mm 3 mps 739 mmHg 30%
    23:00 +33°C° 0 mm 3 mps 740 mmHg 32%

    22 January, Sunday

    Time Temperature Precipitation Wind Pressure Humidity
    00:00 +31°C° 0 mm 3 mps 739 mmHg 34%
    01:00 +31°C° 0 mm 2 mps 739 mmHg 37%
    02:00 +30°C° 0 mm 2 mps 739 mmHg 39%
    03:00 +30°C° 0 mm 2 mps 739 mmHg 40%
    04:00 +29°C° 0 mm 3 mps 739 mmHg 41%
    05:00 +29°C° 0 mm 3 mps 739 mmHg 42%
    06:00 +30°C° 0 mm 3 mps 739 mmHg 40%
    07:00 +33°C° 0 mm 4 mps 740 mmHg 37%
    08:00 +34°C° 0 mm 4 mps 740 mmHg 35%
    09:00 +37°C° 0 mm 4 mps 740 mmHg 30%
    10:00 +40°C° 0 mm 4 mps 740 mmHg 26%
    11:00 +43°C° 0 mm 4 mps 740 mmHg 22%
    12:00 +44°C° 0 mm 4 mps 739 mmHg 20%
    13:00 +45°C° 0 mm 4 mps 739 mmHg 18%
    14:00 +47°C° 0 mm 4 mps 738 mmHg 16%
    15:00 +45°C° 0 mm 4 mps 738 mmHg 17%
    16:00 +46°C° 0 mm 5 mps 737 mmHg 18%
    17:00 +45°C° 0 mm 5 mps 737 mmHg 18%
    18:00 +42°C° 0 mm 5 mps 737 mmHg 21%
    19:00 +40°C° 0 mm 4 mps 738 mmHg 24%
    20:00 +37°C° 0 mm 4 mps 738 mmHg 27%
    21:00 +37°C° 0.1 mm 4 mps 738 mmHg 30%
    22:00 +36°C° 0.1 mm 4 mps 739 mmHg 33%
    23:00 +35°C° 0.1 mm 3 mps 739 mmHg 37%

    23 January, Monday

    Time Temperature Precipitation Wind Pressure Humidity
    00:00 +34°C° 0.2 mm 3 mps 739 mmHg 41%
    01:00 +33°C° 0.2 mm 3 mps 739 mmHg 46%
    02:00 +30°C° 0.2 mm 2 mps 739 mmHg 50%
    03:00 +30°C° 0 mm 2 mps 739 mmHg 51%
    04:00 +30°C° 0 mm 2 mps 739 mmHg 51%
    05:00 +29°C° 0 mm 1 mps 739 mmHg 52%
    06:00 +30°C° 0.1 mm 2 mps 739 mmHg 50%
    07:00 +32°C° 0.1 mm 2 mps 740 mmHg 48%
    08:00 +34°C° 0.1 mm 2 mps 741 mmHg 45%
    09:00 +36°C° 0 mm 2 mps 741 mmHg 40%
    10:00 +37°C° 0 mm 1 mps 741 mmHg 34%
    11:00 +40°C° 0 mm 1 mps 741 mmHg 29%
    12:00 +40°C° 0 mm 1 mps 740 mmHg 27%
    13:00 +41°C° 0 mm 1 mps 740 mmHg 26%
    14:00 +41°C° 0 mm 1 mps 739 mmHg 25%
    15:00 +40°C° 0 mm 1 mps 739 mmHg 28%
    16:00 +39°C° 0 mm 2 mps 739 mmHg 31%
    17:00 +38°C° 0 mm 3 mps 739 mmHg 34%
    18:00 +37°C° 0 mm 2 mps 739 mmHg 36%
    19:00 +35°C° 0 mm 2 mps 739 mmHg 38%
    20:00 +34°C° 0 mm 2 mps 739 mmHg 40%
    21:00 +33°C° 0.1 mm 4 mps 740 mmHg 46%
    22:00 +32°C° 0.1 mm 5 mps 740 mmHg 52%
    23:00 +29°C° 0.1 mm 7 mps 741 mmHg 58%
    Show more